Location: Gro�bocka
(50.8204°N, 11.9702°E)
Time: 06:45:24
(UTC+00:00)

BREEZE-M TANK - Pass Details

Date: 29 October 2020
Orbit: 552 x 24734 km, 45.2° (Epoch: 01 December)

Event Time Altitude Azimuth Distance (km) Brightness Sun altitude
Rises 17:07:38 0° 269° (W) 7,480 10.1 -12.5°
Reaches altitude 10° 17:14:28 10° 265° (W) 4,489 8.4 -13.6°
Maximum altitude 17:22:38 47° 194° (SSW) 1,070 3.9 -14.8°
Enters shadow 17:25:09 19° 125° (SE) 1,517 4.1 -15.2°
